When you browse on this site, cookies collect data to enhance your experience and personalize the content and advertising you see.
Visit our Privacy Policy to learn more. By continuing to use the site, you agree to this use of cookies and data.
  • In Hungary
  • List of Countries
  • For 7 days
  • Water Temperature
  • Satellite Maps
  • Weather Map
  • News
  • Weather Widgets
  • user-avatar
    Login

    Hourly Weather Auce

    Today, 19 June, Wednesday

    Time Temperature Precipitation Wind Pressure Humidity
    00:00 +15°C° 0 mm 1 mps 755 mmHg 90%
    01:00 +14°C° 0 mm 1 mps 755 mmHg 90%
    02:00 +14°C° 0 mm 1 mps 755 mmHg 90%
    03:00 +14°C° 0 mm 1 mps 755 mmHg 90%
    04:00 +15°C° 0 mm 1 mps 755 mmHg 90%
    05:00 +15°C° 0 mm 1 mps 754 mmHg 90%
    06:00 +18°C° 0 mm 1 mps 754 mmHg 85%
    07:00 +19°C° 0 mm 1 mps 754 mmHg 81%
    08:00 +20°C° 0 mm 2 mps 754 mmHg 76%
    09:00 +21°C° 0 mm 2 mps 754 mmHg 71%
    10:00 +23°C° 0 mm 2 mps 754 mmHg 67%
    11:00 +25°C° 0 mm 3 mps 754 mmHg 62%
    12:00 +25°C° 0 mm 2 mps 754 mmHg 59%
    13:00 +26°C° 0 mm 2 mps 754 mmHg 57%
    14:00 +26°C° 0 mm 2 mps 753 mmHg 55%
    15:00 +26°C° 0 mm 2 mps 753 mmHg 57%
    16:00 +26°C° 0 mm 2 mps 753 mmHg 60%
    17:00 +26°C° 0 mm 2 mps 752 mmHg 62%
    18:00 +25°C° 0 mm 2 mps 752 mmHg 69%
    19:00 +24°C° 0 mm 2 mps 752 mmHg 77%
    20:00 +21°C° 0 mm 2 mps 751 mmHg 84%
    21:00 +20°C° 0 mm 2 mps 751 mmHg 85%
    22:00 +19°C° 0 mm 2 mps 751 mmHg 86%
    23:00 +18°C° 0 mm 2 mps 751 mmHg 88%

    Tomorrow, 20 June, Thursday

    Time Temperature Precipitation Wind Pressure Humidity
    00:00 +17°C° 0 mm 2 mps 751 mmHg 89%
    01:00 +17°C° 0 mm 2 mps 751 mmHg 90%
    02:00 +16°C° 0 mm 2 mps 751 mmHg 91%
    03:00 +16°C° 0 mm 2 mps 751 mmHg 91%
    04:00 +16°C° 0 mm 2 mps 750 mmHg 91%
    05:00 +16°C° 0 mm 2 mps 750 mmHg 90%
    06:00 +18°C° 0 mm 3 mps 750 mmHg 86%
    07:00 +19°C° 0 mm 3 mps 750 mmHg 82%
    08:00 +21°C° 0 mm 4 mps 749 mmHg 78%
    09:00 +22°C° 0 mm 4 mps 749 mmHg 77%
    10:00 +23°C° 0 mm 4 mps 749 mmHg 75%
    11:00 +25°C° 0 mm 4 mps 749 mmHg 74%
    12:00 +26°C° 0.7 mm 3 mps 749 mmHg 73%
    13:00 +26°C° 0.7 mm 3 mps 749 mmHg 73%
    14:00 +27°C° 0.7 mm 3 mps 749 mmHg 72%
    15:00 +27°C° 0.6 mm 2 mps 749 mmHg 72%
    16:00 +27°C° 0.6 mm 2 mps 749 mmHg 73%
    17:00 +27°C° 0.6 mm 2 mps 749 mmHg 73%
    18:00 +26°C° 0.3 mm 1 mps 748 mmHg 78%
    19:00 +25°C° 0.3 mm 1 mps 748 mmHg 82%
    20:00 +24°C° 0.3 mm 1 mps 748 mmHg 87%
    21:00 +23°C° 0 mm 1 mps 748 mmHg 89%
    22:00 +22°C° 0 mm 1 mps 749 mmHg 91%
    23:00 +20°C° 0 mm 1 mps 749 mmHg 93%

    Day after tomorrow, 21 June, Friday

    Time Temperature Precipitation Wind Pressure Humidity
    00:00 +20°C° 0 mm 1 mps 749 mmHg 93%
    01:00 +19°C° 0 mm 1 mps 749 mmHg 93%
    02:00 +19°C° 0 mm 1 mps 749 mmHg 93%
    03:00 +19°C° 0 mm 1 mps 749 mmHg 93%
    04:00 +19°C° 0 mm 1 mps 749 mmHg 93%
    05:00 +19°C° 0 mm 1 mps 749 mmHg 93%
    06:00 +20°C° 0 mm 1 mps 749 mmHg 90%
    07:00 +22°C° 0 mm 1 mps 749 mmHg 87%
    08:00 +23°C° 0 mm 1 mps 750 mmHg 84%
    09:00 +24°C° 0.1 mm 2 mps 750 mmHg 80%
    10:00 +25°C° 0.1 mm 2 mps 750 mmHg 76%
    11:00 +26°C° 0.1 mm 3 mps 751 mmHg 72%
    12:00 +26°C° 0.2 mm 3 mps 751 mmHg 70%
    13:00 +27°C° 0.2 mm 3 mps 751 mmHg 68%
    14:00 +27°C° 0.2 mm 3 mps 751 mmHg 66%
    15:00 +27°C° 0.1 mm 3 mps 751 mmHg 67%
    16:00 +27°C° 0.1 mm 3 mps 751 mmHg 67%
    17:00 +26°C° 0.1 mm 3 mps 751 mmHg 67%
    18:00 +25°C° 0.1 mm 3 mps 751 mmHg 74%
    19:00 +23°C° 0.1 mm 2 mps 751 mmHg 80%
    20:00 +20°C° 0.1 mm 2 mps 751 mmHg 86%
    21:00 +19°C° 0 mm 2 mps 752 mmHg 88%
    22:00 +18°C° 0 mm 2 mps 752 mmHg 90%
    23:00 +16°C° 0 mm 1 mps 752 mmHg 92%

    22 June, Saturday

    Time Temperature Precipitation Wind Pressure Humidity
    00:00 +16°C° 0 mm 1 mps 752 mmHg 90%
    01:00 +16°C° 0 mm 2 mps 752 mmHg 89%
    02:00 +16°C° 0 mm 2 mps 752 mmHg 88%
    03:00 +15°C° 0 mm 1 mps 752 mmHg 81%
    04:00 +15°C° 0 mm 1 mps 752 mmHg 82%
    05:00 +15°C° 0 mm 1 mps 752 mmHg 83%
    06:00 +15°C° 0.2 mm 1 mps 753 mmHg 86%
    07:00 +16°C° 0.2 mm 1 mps 753 mmHg 88%
    08:00 +16°C° 0.2 mm 1 mps 753 mmHg 91%
    09:00 +19°C° 0 mm 1 mps 754 mmHg 82%
    10:00 +19°C° 0 mm 2 mps 754 mmHg 73%
    11:00 +21°C° 0 mm 2 mps 754 mmHg 64%
    12:00 +23°C° 0 mm 2 mps 755 mmHg 61%
    13:00 +24°C° 0 mm 3 mps 755 mmHg 57%
    14:00 +25°C° 0 mm 3 mps 755 mmHg 53%
    15:00 +25°C° 0 mm 3 mps 755 mmHg 53%
    16:00 +24°C° 0 mm 3 mps 755 mmHg 54%
    17:00 +23°C° 0 mm 4 mps 755 mmHg 54%
    18:00 +21°C° 0 mm 3 mps 755 mmHg 61%
    19:00 +20°C° 0 mm 3 mps 755 mmHg 69%
    20:00 +18°C° 0 mm 2 mps 755 mmHg 76%
    21:00 +16°C° 0 mm 2 mps 756 mmHg 81%
    22:00 +14°C° 0 mm 2 mps 756 mmHg 86%
    23:00 +13°C° 0 mm 2 mps 756 mmHg 91%

    23 June, Sunday

    Time Temperature Precipitation Wind Pressure Humidity
    00:00 +12°C° 0 mm 2 mps 756 mmHg 89%
    01:00 +12°C° 0 mm 2 mps 756 mmHg 87%
    02:00 +10°C° 0 mm 2 mps 756 mmHg 85%
    03:00 +10°C° 0 mm 2 mps 756 mmHg 82%
    04:00 +10°C° 0 mm 2 mps 756 mmHg 79%
    05:00 +10°C° 0 mm 2 mps 756 mmHg 77%
    06:00 +12°C° 0 mm 2 mps 756 mmHg 75%
    07:00 +13°C° 0 mm 3 mps 756 mmHg 73%
    08:00 +16°C° 0 mm 3 mps 756 mmHg 72%
    09:00 +17°C° 0 mm 3 mps 756 mmHg 68%
    10:00 +18°C° 0 mm 3 mps 756 mmHg 64%
    11:00 +18°C° 0 mm 3 mps 756 mmHg 61%
    12:00 +19°C° 0 mm 4 mps 756 mmHg 58%
    13:00 +19°C° 0 mm 4 mps 756 mmHg 56%
    14:00 +20°C° 0 mm 4 mps 755 mmHg 53%
    15:00 +19°C° 0 mm 4 mps 755 mmHg 56%
    16:00 +18°C° 0 mm 3 mps 755 mmHg 59%
    17:00 +18°C° 0 mm 3 mps 755 mmHg 62%
    18:00 +17°C° 0 mm 3 mps 755 mmHg 65%
    19:00 +16°C° 0 mm 2 mps 755 mmHg 68%
    20:00 +15°C° 0 mm 2 mps 755 mmHg 72%
    21:00 +15°C° 0 mm 2 mps 755 mmHg 73%
    22:00 +14°C° 0 mm 2 mps 755 mmHg 75%
    23:00 +13°C° 0 mm 2 mps 755 mmHg 76%

    24 June, Monday

    Time Temperature Precipitation Wind Pressure Humidity
    00:00 +13°C° 0 mm 2 mps 755 mmHg 76%
    01:00 +12°C° 0 mm 3 mps 755 mmHg 76%
    02:00 +12°C° 0 mm 3 mps 755 mmHg 75%
    03:00 +12°C° 0 mm 3 mps 755 mmHg 76%
    04:00 +12°C° 0 mm 3 mps 756 mmHg 76%
    05:00 +12°C° 0 mm 3 mps 756 mmHg 76%
    06:00 +13°C° 0 mm 3 mps 756 mmHg 73%
    07:00 +14°C° 0 mm 3 mps 756 mmHg 70%
    08:00 +15°C° 0 mm 4 mps 757 mmHg 66%
    09:00 +17°C° 0 mm 4 mps 757 mmHg 60%
    10:00 +19°C° 0 mm 4 mps 757 mmHg 54%
    11:00 +20°C° 0 mm 4 mps 757 mmHg 49%
    12:00 +21°C° 0 mm 4 mps 757 mmHg 47%
    13:00 +21°C° 0 mm 4 mps 758 mmHg 46%
    14:00 +22°C° 0 mm 4 mps 758 mmHg 45%
    15:00 +22°C° 0 mm 4 mps 758 mmHg 47%
    16:00 +22°C° 0 mm 4 mps 758 mmHg 48%
    17:00 +21°C° 0 mm 4 mps 758 mmHg 50%
    18:00 +20°C° 0 mm 3 mps 758 mmHg 57%
    19:00 +18°C° 0 mm 2 mps 758 mmHg 64%
    20:00 +18°C° 0 mm 1 mps 758 mmHg 72%
    21:00 +15°C° 0 mm 2 mps 758 mmHg 75%
    22:00 +14°C° 0 mm 2 mps 759 mmHg 78%
    23:00 +13°C° 0 mm 2 mps 759 mmHg 81%
    Show more